This demonstration page uses our WeatherBlox Daily Observations layout. Learn more.

Left ArrowRight Arrow

53.62937, 11.41316

Hourly Observations for August 11, 2021

Temp ( °F °C ) Dew Point ( °F °C ) Humidity (%) Winds ( mph kmh ) Pressure ( in mb ) Visibility ( mi km ) Precip ( " mm )
12:20 am 00:20 Mostly Clear 57 14 57 14 100 100 VRB 2 4 30.00 1016 5 8 N/A
12:50 am 00:50 Mostly Clear 57 14 57 14 100 100 SW 2 4 30.00 1016 5 8 N/A
1:20 am 01:20 Mostly Clear 57 14 57 14 100 100 SW 3 6 30.00 1016 3 5 N/A
1:50 am 01:50 Mostly Clear with Fog 57 14 57 14 100 100 SW 3 6 30.00 1016 0 1 N/A
2:20 am 02:20 Mostly Clear 57 14 55 13 94 94 SW 3 6 30.00 1016 5 8 N/A
2:50 am 02:50 Mostly Clear 57 14 55 13 94 94 SW 5 7 30.00 1016 3 5 N/A
3:20 am 03:20 Mostly Clear with Mist and Fog 55 13 55 13 100 100 SW 5 7 30.03 1017 2 4 N/A
3:50 am 03:50 Mostly Clear with Mist and Fog 55 13 55 13 100 100 SW 3 6 30.03 1017 1 2 N/A
4:20 am 04:20 Mostly Clear with Fog 55 13 55 13 100 100 WSW 3 6 30.03 1017 0 1 N/A
4:50 am 04:50 Partly Cloudy with Fog 54 12 54 12 100 100 SW 5 7 30.03 1017 0 0 N/A
5:20 am 05:20 Mostly Cloudy with Fog 54 12 54 12 100 100 SW 5 7 30.03 1017 0 0 N/A
5:50 am 05:50 Cloudy with Mist and Fog 55 13 55 13 100 100 SW 5 7 30.03 1017 2 4 N/A
6:20 am 06:20 Cloudy with Fog 55 13 55 13 100 100 WSW 3 6 30.03 1017 0 1 N/A
6:50 am 06:50 Mostly Cloudy with Mist and Fog 57 14 55 13 94 94 WSW 3 6 30.03 1017 1 1 N/A
7:20 am 07:20 Mostly Cloudy with Mist and Fog 57 14 55 13 94 94 WSW 5 7 30.03 1017 1 2 N/A
7:50 am 07:50 Mostly Cloudy with Mist and Fog 57 14 57 14 100 100 WSW 5 7 30.06 1018 2 3 N/A
8:20 am 08:20 Mostly Cloudy with Mist and Fog 57 14 57 14 100 100 VRB 3 6 30.06 1018 2 3 N/A
8:50 am 08:50 Mostly Cloudy with Mist and Fog 57 14 57 14 100 100 W 3 6 30.06 1018 3 5 N/A
9:20 am 09:20 Mostly Cloudy 59 15 59 15 100 100 VRB 2 4 30.06 1018 4 7 N/A
9:50 am 09:50 Mostly Cloudy 61 16 61 16 100 100 W 5 7 30.06 1018 30 48 N/A
10:20 am 10:20 Partly Cloudy 63 17 59 15 88 88 SSW 8 13 30.06 1018 30 48 N/A
10:50 am 10:50 Partly Cloudy 66 19 59 15 78 78 SW 6 9 30.06 1018 30 48 N/A
11:20 am 11:20 Partly Cloudy 66 19 57 14 73 73 WSW 5 7 30.09 1019 30 48 N/A
11:50 am 11:50 Partly Cloudy 66 19 57 14 73 73 SSW 7 11 30.09 1019 30 48 N/A
12:20 pm 12:20 Partly Cloudy 68 20 55 13 64 64 SSW 9 15 30.09 1019 30 48 N/A
12:50 pm 12:50 Partly Cloudy 68 20 55 13 64 64 SSW 8 13 30.09 1019 30 48 N/A
1:20 pm 13:20 Mostly Sunny 70 21 55 13 60 60 SSW 9 15 30.09 1019 30 48 N/A
1:50 pm 13:50 Partly Cloudy 72 22 55 13 57 57 SSW 10 17 30.06 1018 30 48 N/A
2:20 pm 14:20 Partly Cloudy 72 22 55 13 57 57 SSW 12 19 30.06 1018 30 48 N/A
2:50 pm 14:50 Partly Cloudy 73 23 54 12 50 50 SSW 12 19 30.06 1018 30 48 N/A
3:20 pm 15:20 Partly Cloudy 72 22 55 13 57 57 SW 9 15 30.06 1018 30 48 N/A
3:50 pm 15:50 Partly Cloudy 72 22 55 13 57 57 SSW 9 15 30.06 1018 30 48 N/A
4:20 pm 16:20 Partly Cloudy 72 22 55 13 57 57 SW 10 17 30.06 1018 30 48 N/A
4:50 pm 16:50 Partly Cloudy 72 22 55 13 57 57 SW 8 13 30.06 1018 30 48 N/A
5:20 pm 17:20 Partly Cloudy 73 23 54 12 50 50 VRB 5 7 30.06 1018 30 48 N/A
5:50 pm 17:50 Partly Cloudy 72 22 55 13 57 57 SW 8 13 30.06 1018 30 48 N/A
6:20 pm 18:20 Partly Cloudy 73 23 55 13 53 53 WSW 3 6 30.06 1018 30 48 N/A
6:50 pm 18:50 Partly Cloudy 72 22 54 12 53 53 WSW 6 9 30.09 1019 30 48 N/A
7:20 pm 19:20 Mostly Sunny 72 22 54 12 53 53 WSW 5 7 30.09 1019 30 48 N/A
7:50 pm 19:50 Mostly Sunny 70 21 54 12 57 57 WSW 3 6 30.09 1019 7 11 N/A
8:20 pm 20:20 Mostly Sunny 70 21 55 13 60 60 VRB 2 4 30.09 1019 7 11 N/A
8:50 pm 20:50 Mostly Sunny 66 19 55 13 68 68 VRB 2 4 30.09 1019 7 11 N/A
9:20 pm 21:20 Mostly Clear 63 17 55 13 77 77 N N/A 30.09 1019 7 11 N/A
9:50 pm 21:50 Mostly Clear 61 16 55 13 83 83 NE 1 2 30.12 1020 7 11 N/A
10:20 pm 22:20 Mostly Clear 59 15 57 14 94 94 N N/A 30.12 1020 7 11 N/A
10:50 pm 22:50 Mostly Clear 59 15 57 14 94 94 N N/A 30.12 1020 7 11 N/A

Powered by AerisWeather